Regional Weather Roundup
Issued by NWS

Home | Current Version | Previous Version | Text Only | Print | Product List | Glossary Off
Versions: 1 2 3 4 5 6 7 8 9 10 11 12 13 14 15 16 17 18 19 20 21 22 23 24 25 26 27 28 29 30 31 32 33 34 35 36 37 38 39 40 41 42 43 44 45 46 47 48 49 50

000
ASUS43 KFSD 241810
RWRSD

WEATHER ROUNDUP FOR SOUTH DAKOTA
NATIONAL WEATHER SERVICE SIOUX FALLS SD
100 PM CDT TUE MAY 24 2016

NOTE: "FAIR" INDICATES FEW OR NO CLOUDS BELOW 12,000 FEET WITH NO
SIGNIFICANT WEATHER AND/OR OBSTRUCTIONS TO VISIBILITY.


SDZ001>005-009-010-012>017-241900-
NORTHWEST AND NORTH CENTRAL SOUTH DAKOTA

CITY           SKY/WX    TMP DP  RH WIND       PRES   REMARKS
BUFFALO          N/A     70  40  33 E8G17     29.85F
FAITH            N/A     70  43  37 SE8       29.90S
MOBRIDGE       SUNNY     73  45  36 W6        29.87S
$$

SDZ012>016-024>037-041>051-057-063-072>074-241900-
SOUTHWEST AND SOUTH CENTRAL SOUTH DAKOTA

CITY           SKY/WX    TMP DP  RH WIND       PRES   REMARKS
RAPID CTY ARPT PTSUNNY   67  44  43 S6        29.91F
PIERRE         SUNNY     74  53  48 SE6       29.86S
CUSTER         CLOUDY    59  31  34 SE12G17   29.98R
ELLSWORTH AFB  MOSUNNY   69  44  41 SE9       29.91S
PHILIP         SUNNY     73  49  42 VRB3      29.88F
PINE RIDGE     SUNNY     73  38  27 SE13G18   29.90F
WINNER         FAIR      78  51  38 NW3       29.88F
$$

SDZ004>011-016>023-039-040-241900-
NORTHEAST SOUTH DAKOTA

CITY           SKY/WX    TMP DP  RH WIND       PRES   REMARKS
ABERDEEN       SUNNY     77  52  41 VRB6      29.85S
WATERTOWN      SUNNY     73  61  65 S5        29.87F
BROOKINGS      SUNNY     74  62  66 VRB5      29.88S
SISSETON         N/A     80  55  42 SW9       29.84S
$$

SDZ017-020-022-023-036>040-048>070-241900-
SOUTHEAST SOUTH DAKOTA

CITY           SKY/WX    TMP DP  RH WIND       PRES   REMARKS
SIOUX FALLS    MOSUNNY   79  60  52 CALM      29.87S
HURON          SUNNY     77  54  44 CALM      29.85F
CHAMBERLAIN    SUNNY     78  49  36 SW6       29.88S
MITCHELL       SUNNY     80  56  43 NW3       29.86S
YANKTON        SUNNY     77  59  53 CALM      29.86R
$$

ABBREVIATIONS USED IN REMARKS
   TC - TEMPERATURE IN CELSIUS
  WCI - WIND CHILL INDEX
   HX - HEAT INDEX
  VSB - VISIBILITY




USA.gov is the U.S. government's official web portal to all federal, state and local government web resources and services.